Location: ???? ?????
(37.9132°N, 22.9869°E)
Time: 09:23:04
(UTC+00:00)

ATLAS 5 CENTAUR R/B - Pass Details

Date: 04 August 2024
Orbit: 411 x 1156 km, 63.3° (Epoch: 14 September)

Event Time Altitude Azimuth Distance (km) Brightness Sun altitude
Rises 19:43:17 0° 347° (NNW) 2,924 6.0 -22.1°
Reaches altitude 10° 19:47:04 10° 20° (NNE) 2,202 4.7 -22.6°
Maximum altitude 19:48:55 12° 41° (NE) 2,165 4.4 -22.8°
Drops below altitude 10° 19:50:54 10° 63° (ENE) 2,388 4.4 -23.1°
Enters shadow 19:51:02 10° 64° (ENE) 2,411 4.4 -23.1°
